Location: Armidale
(30.5016°S, 151.6662°E)
Time: 15:03:29
(UTC+10:00)

BEESAT 3 - Pass Details

Date: 30 July 2021
Orbit: 483 x 509 km, 64.9° (Epoch: 26 September)

Event Time Altitude Azimuth Distance (km) Brightness Sun altitude
Rises 18:41:21 0° 327° (NNW) 2,606 ? -17.9°
Reaches altitude 10° 18:43:31 10° 323° (NW) 1,725 ? -18.4°
Maximum altitude 18:47:20 62° 242° (WSW) 577 ? -19.2°
Enters shadow 18:49:18 27° 169° (S) 1,013 ? -19.6°
